ARIANE 5 R/B, 33057

Orbit data source: Space-Track

ARIANE 5 R/B, 33057 is space debris in HEO originally from a launch on Thu, 12 Jun 2008 UTC launched from the French Guiana (FRGUI). Debris objects in space refer to the collection of defunct objects orbiting the Earth. Examples of debris include non-operational satellites, rocket bodies, and fragments generated from explosions, collisions, or faulty payload assembly.

Loading next visibility...
Identifier
33057, 2008-030C
Orbit
HEO
Country
Flag of FRFR
Related business
Manufacturer
EADS/LV
Mission
Spacecraft
Bus & Motor
ESC-A, Unknown motor
Mass
~5,000 kg wet, ~5,000 kg dry
Launch date (UTC)
2008-06-12 (18 years ago)
Launch vehicle
Unknown
Launch site
French Guiana (FRGUI)
Object type
Payload
Rocket body
Debris
Shape & HBR
Cyl + 1 Nozzle, 3.5 m
Radar Cross Section
41.627 m², Large (>1 m²)

Expand to show TLE details & history
Last TLE update: 21 hours ago

TLE from 21 hours ago
0 ARIANE 5 R/B
1 33057U 08030C   25348.72725957  .00000818  00000-0  41406-3 0  9990
2 33057   1.5778  81.2093 7018418 100.1533 338.4675  2.59165018154433
Epoch: 2025-12-14T17:27Z
TLE epoch observation values (Epoch: 2025-12-14T17:27:15.226Z)
Latitude
0.00005°
Longitude
94.61046°
Altitude
6,823.384 km
Speed
6.525 km/s
True Right ascension
05h 20m 14s
True Declination
0° 00' 00"
Sunlit
Object was in full shadow at epoch
Visualization orbit readout
Latitude
Unknown
Longitude
Unknown
Altitude
Unknown
Speed
Unknown
Apparent Right ascension
Unknown
Apparent Declination
Unknown
Sunlit
N/A
Visualization observer readout
Local Sidereal Time
13:22:55
Azimuth
Unknown
Elevation
Unknown
Doppler factor
Unknown
Orbital elements
Apogee altitude
31,732.175 km
Perigee altitude
298.689 km
Semi-major axis
22,393.569 km
Eccentricity
0.70184
Inclination
1.5778°
RAAN
81.2093°
Arg. of periapsis
100.1533°
True anomaly
258.67073°
Mean anomaly
338.4675°
Eccentric anomaly
305.8892°
Mean motion
0.64768 °/min
Orbital period
555.83 mins
BSTAR
0.00041406
Loading maneuver chart data...
Computing Atmospheric mass density...
Loading historical data...
Loading historical data...
Loading historical data...
Loading historical data...
Loading historical data...
Loading historical data...
Loading historical data...

Documentation

Showing up to 5 results
|